Tracking 22879 objects as of 20-Apr-2021
HD Live streaming from Space Station
objects crossing your sky now

GALAXY 10R

Track GALAXY 10R now!
GALAXY 10R is classified as:


NORAD ID: 26056
Int'l Code: 2000-002A
Perigee: 35,946.4 km
Apogee: 35,995.3 km
Inclination: 9.2 °
Period: 1,445.2 minutes
Semi major axis: 42341 km
RCS: 16.229 m2 (large)
Launch date: January 25, 2000
Source: United States (US)
Launch site: FRENCH GUIANA (FRGUI)

Digital and voice communications; 24 C-band< 24 Ku-band; North America.
aabbcc
Your satellite tracking list
Your tracking list is empty




NASA's NSSDC Master Catalog

Two Line Element Set (TLE):
1 26056U 00002A   21109.67294422  .00000016  00000-0  00000-0 0  9997
2 26056   9.2264  43.5416 0005775  32.9361  33.4035  0.99643285 77553
Source of the keplerian elements: AFSPC